Wetbulb
50.91 51.41 51.45 51.01 51.01 50.93 49.92 50.18 49.01 51.32 52.90 58.09 60.30 60.37 61.46 61.57 63.46 64.54 66.99 69.98 70.34 72.71 74.17 76.13 77.57 78.07 78.23 77.37 78.33 78.73 77.70 77.02 77.21 77.19 76.44 76.17 76.04 75.71 75.83 75.82 76.32 77.33 76.42 76.32
49.37 51.15 51.27 49.49 51.01 51.54 51.89 51.35 51.04 51.95 52.41 59.76 59.92 62.85 62.32 62.21 62.97 63.03 65.26 65.83 71.57 74.11 75.50 75.77 77.06 77.36 77.91 78.59 78.01 78.85 77.83 76.99 78.47 77.98 78.60 76.81 76.50 76.53 76.87 76.52 76.87 76.54 76.56 76.91
47.84 50.80 50.34 47.55 50.07 50.94 52.01 53.45 52.11 49.88 54.87 59.80 57.24 60.54 63.20 65.79 66.67 66.05 66.31 67.13 71.13 73.05 74.89 76.51 77.48 78.29 78.10 79.01 78.59 78.10 78.18 78.44 78.25 77.36 77.47 77.96 77.64 77.27 76.93 77.14 77.40 76.63 76.65 76.37
51.44 53.13 44.52 51.11 54.51 53.75 52.46 53.75 54.86 54.58 56.08 58.48 59.36 62.20 68.06 68.98 69.82 70.08 70.53 70.72 72.02 71.39 75.18 77.15 77.57 78.07 79.56 79.31 78.75 78.18 77.52 77.41 78.07 76.90 77.09 77.43 77.54 76.73 76.79 77.01 76.81 76.54 76.35 76.84
48.27 48.02 51.39 53.74 53.71 52.85 51.73 52.24 55.36 55.14 56.57 57.24 61.31 68.31 68.20 70.86 71.99 71.88 71.78 70.49 71.03 71.09 73.63 77.71 77.59 79.76 80.01 78.95 78.61 78.24 77.27 77.27 77.84 77.28 77.14 76.88 76.50 76.18 76.31 76.89 76.34 76.19 76.36 76.29
51.17 45.70 43.10 52.17 56.73 58.98 56.82 50.59 56.50 56.56 56.78 56.94 60.07 56.88 66.09 69.99 70.90 71.78 72.61 72.63 71.43 72.50 75.67 76.36 79.45 79.95 79.61 78.50 78.52 77.67 77.78 77.77 78.31 77.73 77.14 76.56 76.69 76.49 76.95 77.07 76.26 76.45 76.11 76.76
49.97 47.29 49.08 55.63 56.49 59.79 49.37 53.02 57.88 57.67 58.72 59.93 63.07 65.63 70.36 70.72 70.36 71.41 72.02 72.81 74.87 74.02 74.04 75.32 78.15 77.97 79.10 78.77 76.14 78.30 78.69 78.46 78.06 78.14 77.51 77.51 77.45 77.29 76.59 76.01 75.61 75.60 75.64 75.86
49.92 48.46 46.31 58.34 58.53 55.02 56.41 61.14 60.15 60.21 60.68 68.63 69.83 70.12 69.64 70.00 70.26 70.44 70.28 71.33 72.63 73.85 74.25 75.43 76.68 77.35 78.13 79.09 79.42 77.65 79.64 78.91 77.95 77.86 77.49 77.36 77.52 76.08 75.66 74.56 73.20 74.14 74.09 74.78
52.65 53.95 57.39 58.77 57.82 58.83 60.93 63.59 68.61 66.33 69.15 70.29 69.03 69.07 69.44 69.42 69.97 70.29 71.11 71.16 71.99 73.03 74.39 74.33 75.31 76.93 76.80 77.94 79.13 79.91 79.45 78.12 77.85 77.20 76.97 77.04 74.59 69.17 65.53 66.62 69.52 71.00 71.40 72.20
53.39 55.83 54.39 55.52 58.64 59.54 61.94 67.16 68.25 68.96 68.56 68.51 67.85 68.39 68.34 68.82 68.86 69.03 69.77 70.74 72.00 72.17 73.00 72.78 74.82 74.46 74.78 76.12 76.67 76.42 77.17 77.67 78.14 76.77 73.06 68.21 63.48 63.71 64.23 63.94 65.52 69.05 68.96 70.48
52.27 55.36 55.40 57.44 58.56 59.69 60.82 64.99 67.67 67.93 68.25 68.06 67.81 67.40 67.70 67.96 68.94 68.97 69.51 69.37 71.55 71.20 71.71 72.64 73.19 73.54 73.51 74.79 74.94 73.63 74.06 74.48 73.90 73.21 71.26 69.16 67.53 66.02 64.95 66.50 65.60 65.47 64.37 65.17
53.25 56.49 55.73 56.14 56.67 59.02 58.24 65.09 66.93 66.66 66.06 66.96 67.94 68.14 68.70 68.80 69.38 69.71 69.92 70.80 71.09 70.91 70.98 71.41 72.60 73.31 73.28 73.90 73.00 71.91 71.63 71.25 71.06 71.05 71.83 72.61 71.87 67.76 56.43 58.96 54.43 54.07 53.34 58.49
53.66 56.65 58.20 56.41 57.99 63.30 65.38 65.18 65.76 66.18 67.20 66.41 67.34 68.20 69.23 69.13 69.62 67.21 70.61 70.76 70.57 70.17 70.41 70.87 71.10 72.06 71.88 72.01 71.55 71.43 70.35 70.98 71.19 68.33 70.60 70.44 70.60 69.36 68.20 61.42 52.80 52.24 49.17 48.99
61.28 59.38 56.87 57.73 61.72 65.42 65.10 64.32 64.66 66.16 66.50 66.89 67.51 67.72 68.51 68.76 67.68 69.19 69.26 69.65 70.03 69.93 69.49 69.99 70.28 70.23 71.32 71.97 71.50 70.79 70.88 59.06 69.72 70.33 69.51 68.57 68.98 69.14 68.21 68.52 68.68 68.63 54.51 55.34
59.05 62.20 64.07 65.52 63.71 64.68 65.02 65.00 64.39 64.37 65.43 65.98 67.28 67.17 67.35 68.29 67.88 67.79 68.05 68.21 68.04 67.65 67.52 68.55 69.10 68.84 70.72 71.86 71.52 71.11 70.82 70.86 70.07 69.49 69.43 67.11 68.96 68.91 68.64 69.68 68.56 67.11 64.42 54.25
60.88 62.80 63.06 63.29 64.38 64.43 64.13 64.11 63.41 63.88 65.23 65.91 66.13 66.54 66.82 67.66 66.95 66.26 67.11 67.47 66.92 65.88 66.18 66.91 67.21 68.34 70.06 70.76 69.68 70.72 68.97 65.44 67.42 69.18 69.10 68.57 67.55 67.35 67.07 66.90 66.52 66.11 65.32 64.95
60.17 60.10 61.24 61.68 61.81 62.78 64.05 64.62 64.76 64.60 65.62 65.98 66.53 66.69 65.91 65.94 65.90 66.08 66.69 65.86 66.02 66.35 66.08 66.20 67.52 68.84 69.21 70.30 70.31 69.05 68.10 67.52 65.27 66.77 66.87 66.71 66.71 66.47 66.28 65.51 65.37 65.00 63.94 57.58
62.89 63.15 63.26 62.95 62.17 62.45 63.16 64.67 63.91 66.00 66.33 67.17 66.87 65.57 64.70 64.59 65.84 65.32 65.62 65.42 65.16 65.39 66.17 66.96 67.81 68.61 69.56 69.27 69.16 68.71 68.12 68.30 67.81 67.54 67.58 67.61 67.39 67.12 67.15 66.26 65.87 65.70 64.59 57.33
63.97 63.81 64.23 64.32 64.21 63.86 62.63 62.29 60.92 64.15 68.44 67.22 65.63 64.94 65.61 65.28 65.50 64.61 65.03 65.68 64.44 64.47 64.91 67.86 63.79 66.32 67.38 65.37 65.81 66.94 66.47 67.60 67.41 67.06 68.18 64.11 66.66 67.32 65.88 65.31 65.28 65.40 64.09 59.35
62.74 63.97 64.71 64.86 65.63 65.38 65.93 66.38 63.76 66.61 66.42 65.32 64.85 65.36 65.02 64.93 65.41 64.78 66.25 65.16 65.58 65.70 66.16 66.93 67.36 66.78 66.78 65.89 66.34 66.15 65.21 65.38 64.79 65.37 64.73 66.05 65.57 66.21 66.24 58.70 63.86 65.09 66.39 65.74
62.10 63.02 64.10 65.24 65.23 66.54 66.82 66.51 67.20 65.68 64.84 65.16 64.93 65.36 65.84 64.14 66.17 64.78 65.45 62.21 65.14 65.41 65.63 64.62 65.99 62.84 65.52 63.39 63.38 64.74 64.31 63.89 64.22 64.04 64.27 64.82 63.77 65.19 65.29 65.88 64.88 64.71 64.66 65.66
62.28 62.42 63.22 64.91 65.76 65.71 66.77 67.61 64.97 67.25 66.47 66.34 66.18 65.93 64.95 64.67 65.37 65.36 64.93 64.26 65.18 58.41 64.43 64.83 64.18 59.46 60.57 58.48 61.10 60.71 60.67 60.32 60.13 60.81 60.54 60.61 60.94 61.33 63.93 62.73 63.13 64.81 65.73 65.55
62.11 63.03 63.15 64.34 64.75 63.50 66.33 67.79 64.46 66.18 64.79 66.12 65.46 64.78 64.41 63.26 63.40 61.15 59.52 64.30 63.67 57.83 60.25 60.50 57.48 59.48 56.77 64.46 62.92 61.92 60.57 61.27 61.22 61.20 60.98 61.79 61.30 61.26 61.34 61.18 61.92 63.60 63.92 62.69
62.29 62.83 63.75 64.41 66.32 64.34 66.10 62.57 65.65 65.09 65.26 66.14 64.86 64.81 63.27 59.83 60.35 61.16 60.94 57.14 56.20 58.43 59.48 59.12 58.67 57.47 53.91 64.52 64.52 64.07 63.33 62.16 62.81 62.52 62.90 54.64 62.69 62.03 61.86 61.93 61.20 61.71 61.32 60.14
62.22 62.40 63.68 63.37 65.33 66.20 63.72 62.86 64.24 63.63 63.41 64.40 64.86 65.04 61.44 63.38 60.70 59.95 60.07 60.63 55.34 58.48 60.08 55.07 56.82 56.65 61.49 64.73 64.10 64.09 64.67 64.76 63.77 64.38 61.73 61.28 61.51 63.83 63.02 62.75 60.48 60.50 60.77 60.66
61.61 62.15 62.82 63.92 63.31 64.86 61.46 62.62 60.71 61.41 61.31 61.83 61.36 61.48 61.80 63.27 61.71 62.44 61.64 59.92 61.27 58.47 62.11 60.27 60.43 60.13 62.13 62.89 63.45 63.87 62.90 62.26 62.11 62.16 61.12 61.56 61.29 60.22 61.09 60.78 60.87 58.82 58.44 59.36
62.83 56.34 62.09 60.28 59.68 59.34 56.49 56.93 60.18 60.44 59.77 59.92 59.45 60.98 61.55 61.61 61.56 61.33 59.45 60.76 61.37 61.45 61.62 62.79 62.42 59.40 60.42 62.28 61.37 59.83 58.86 61.34 55.55 59.72 60.63 60.72 60.75 60.58 60.71 60.94 60.80 60.92 60.69 60.12
MSLP
995.26 994.18 993.41 992.64 992.02 992.17 992.44 992.22 991.93 991.16 990.78 991.31 991.68 992.02 992.59 992.47 993.00 993.37 993.89 994.73 995.36 996.02 997.07 998.25 999.24 1000.02 1000.70 1001.30 1001.98 1002.42 1002.93 1003.53 1004.12 1004.84 1005.41 1005.87 1006.49 1007.08 1007.33 1007.73 1008.00 1008.27 1008.70 1009.04
996.25 995.05 993.87 992.98 992.15 991.42 991.26 991.73 991.57 991.14 990.77 991.41 993.03 992.78 993.61 993.05 993.26 993.72 993.82 994.44 995.10 996.19 997.21 998.21 999.09 999.95 1000.59 1001.20 1001.76 1002.30 1002.73 1003.32 1003.85 1004.49 1005.01 1005.47 1006.17 1006.70 1006.94 1007.26 1007.66 1007.99 1008.02 1008.33
997.29 995.93 994.67 992.91 992.29 991.57 991.02 990.61 990.97 990.80 990.56 991.14 992.15 993.04 992.80 993.37 993.95 994.42 994.52 994.73 995.39 995.93 997.00 998.03 998.97 999.79 1000.40 1001.07 1001.66 1002.20 1002.75 1003.31 1003.78 1004.40 1004.92 1005.27 1005.73 1006.30 1006.79 1007.11 1007.43 1007.74 1007.94 1008.11
998.35 996.46 994.33 993.40 992.62 991.85 991.16 990.48 990.01 990.17 990.06 990.41 991.11 993.45 993.43 993.98 994.23 994.95 995.56 995.56 996.03 996.24 996.52 997.46 998.39 999.34 1000.19 1000.97 1001.60 1002.28 1002.85 1003.34 1003.76 1004.32 1004.74 1005.02 1005.30 1005.70 1006.11 1006.57 1007.00 1007.46 1007.78 1007.95
998.79 997.22 996.66 995.49 992.99 992.24 991.53 990.77 990.21 989.80 989.54 989.95 990.79 992.25 994.09 994.66 995.38 996.15 996.39 996.65 996.69 996.37 996.57 996.94 997.72 998.71 999.80 1000.74 1001.54 1002.24 1002.83 1003.33 1003.64 1004.09 1004.56 1004.95 1005.20 1005.23 1005.43 1005.92 1006.39 1006.84 1007.26 1007.60
999.89 999.27 998.45 997.05 995.19 994.15 992.26 990.51 990.37 989.89 989.72 989.75 990.12 991.31 993.27 994.62 995.65 996.69 997.26 997.34 997.09 997.08 996.85 997.19 997.75 998.57 999.53 1000.48 1001.35 1002.13 1002.73 1003.21 1003.51 1003.91 1004.20 1004.49 1004.78 1005.18 1005.38 1005.74 1006.11 1006.21 1006.64 1007.10
999.95 999.24 998.38 997.35 996.34 995.24 993.00 990.60 989.50 989.50 989.74 989.87 990.52 991.49 993.92 995.07 996.63 997.38 997.80 997.78 997.73 997.71 997.87 998.07 998.27 998.66 999.40 1000.12 1000.82 1001.44 1002.15 1002.71 1003.12 1003.55 1003.96 1004.29 1004.67 1005.09 1005.33 1005.61 1005.83 1006.15 1006.37 1006.53
1002.29 1000.27 998.57 998.47 997.53 997.25 995.56 992.57 989.54 988.98 989.44 990.84 991.90 993.10 995.38 996.12 997.08 997.72 998.13 998.31 998.42 998.66 998.93 999.26 999.42 999.49 999.80 1000.09 1000.50 1001.00 1001.69 1002.14 1002.59 1002.99 1003.62 1004.06 1004.46 1004.85 1005.32 1005.92 1005.91 1006.43 1006.22 1006.22
1003.59 1001.31 999.74 999.67 999.15 998.61 996.98 993.18 988.80 988.92 989.79 991.25 992.12 993.60 995.57 996.96 997.45 998.10 998.49 998.98 999.29 999.28 999.88 1000.38 1000.76 1000.78 1000.74 1001.20 1001.05 1001.19 1001.45 1001.89 1002.39 1002.81 1003.45 1003.64 1004.17 1005.45 1006.56 1007.25 1007.35 1006.89 1006.55 1006.27
1004.50 1001.47 1001.60 1000.57 1001.07 999.02 996.13 991.92 991.87 991.05 991.17 991.70 993.43 994.81 995.91 996.79 997.88 998.58 999.03 999.37 999.68 1000.03 1000.26 1000.89 1001.23 1001.52 1001.81 1002.00 1002.02 1002.05 1002.09 1002.15 1002.58 1003.05 1003.93 1004.72 1005.39 1006.20 1005.26 1006.61 1006.87 1007.21 1005.88 1007.11
1004.04 1001.96 1002.38 1001.82 1001.61 1000.51 998.53 994.61 992.87 992.97 993.22 993.14 994.17 995.46 996.62 997.90 998.70 999.09 999.46 999.85 1000.26 1000.67 1001.07 1001.36 1001.80 1002.07 1002.39 1002.39 1002.49 1002.51 1002.47 1002.55 1002.86 1003.21 1003.99 1004.93 1005.35 1005.65 1006.03 1006.20 1006.15 1007.22 1007.09 1007.37
1003.40 1002.95 1003.82 1003.48 1001.64 1000.51 998.19 996.64 995.05 994.81 995.37 995.87 996.27 997.02 997.87 998.98 999.71 1000.04 1000.27 1000.49 1000.79 1001.24 1001.43 1001.68 1001.81 1002.39 1002.73 1002.90 1002.91 1002.89 1002.82 1002.78 1002.74 1002.93 1003.15 1003.92 1004.76 1005.56 1005.89 1005.98 1006.62 1006.55 1006.54 1007.27
1003.44 1001.34 1003.65 1002.99 1000.33 998.69 996.63 995.94 995.59 995.82 996.55 997.21 997.62 998.00 998.73 999.64 1000.40 1000.78 1000.91 1001.23 1001.50 1001.85 1002.09 1002.22 1002.28 1002.60 1002.99 1003.18 1003.35 1003.47 1003.33 1003.25 1003.30 1003.37 1003.25 1003.68 1003.98 1004.66 1005.21 1006.09 1006.12 1006.06 1006.69 1007.18
1000.74 1001.13 1002.29 1001.00 998.28 996.59 996.56 996.39 996.24 996.34 996.99 997.46 998.01 998.27 998.74 999.74 1000.78 1001.17 1001.82 1002.26 1002.46 1002.65 1002.86 1003.05 1003.14 1003.22 1003.32 1003.29 1003.44 1003.51 1003.43 1003.72 1003.57 1003.85 1003.77 1004.11 1004.43 1004.55 1004.64 1005.28 1005.64 1006.00 1007.38 1006.99
1001.69 999.36 998.19 998.71 998.72 997.45 997.09 997.02 996.60 996.50 997.22 997.68 998.18 998.52 999.20 999.94 1001.14 1001.90 1002.48 1002.87 1003.14 1003.41 1003.54 1003.54 1003.53 1003.67 1003.50 1003.36 1003.41 1003.43 1003.58 1003.80 1003.84 1003.87 1004.11 1004.19 1004.25 1004.65 1004.81 1005.00 1005.25 1005.67 1006.21 1006.90
997.69 997.77 997.37 997.78 998.17 997.57 996.73 996.93 996.84 996.31 997.02 997.71 998.16 998.85 999.51 1000.34 1001.52 1002.14 1002.44 1002.70 1002.82 1003.33 1003.93 1004.06 1004.07 1004.10 1003.79 1003.37 1003.24 1003.34 1003.63 1003.92 1004.00 1004.07 1004.15 1004.06 1004.10 1004.43 1004.39 1004.85 1005.17 1005.46 1005.99 1006.58
997.58 997.46 997.46 997.33 997.18 996.60 996.78 996.74 996.66 996.48 996.95 997.46 998.08 999.07 1000.00 1000.60 1001.30 1001.91 1002.40 1002.97 1003.51 1003.61 1004.02 1004.20 1004.23 1004.27 1003.98 1003.49 1003.32 1003.33 1003.30 1003.84 1004.05 1004.11 1003.76 1004.01 1004.03 1004.16 1004.43 1004.70 1004.80 1005.26 1005.86 1006.73
997.64 997.65 997.48 997.14 996.80 996.61 996.60 996.64 997.20 996.44 996.93 997.99 998.80 999.40 1000.07 1000.79 1001.41 1002.23 1002.62 1003.35 1003.62 1003.69 1003.97 1004.24 1004.31 1004.25 1003.77 1003.48 1003.29 1003.35 1003.49 1003.72 1003.89 1004.01 1004.09 1004.24 1004.07 1004.14 1004.19 1004.39 1004.59 1004.84 1005.30 1006.53
997.68 997.71 997.62 997.38 997.00 996.73 996.89 997.41 998.73 998.00 996.55 998.10 999.34 999.73 1000.25 1001.11 1001.90 1002.50 1002.82 1003.14 1003.57 1003.96 1004.20 1004.30 1004.48 1004.20 1003.66 1003.95 1003.83 1003.48 1003.43 1003.64 1003.81 1003.93 1004.21 1004.39 1004.32 1004.43 1004.60 1004.59 1004.69 1004.74 1005.21 1006.06
997.49 997.15 996.83 996.54 996.51 996.65 996.69 996.48 997.60 997.60 997.85 997.80 998.94 1000.12 1000.72 1001.41 1001.96 1002.59 1002.96 1003.35 1003.77 1003.96 1004.27 1004.12 1003.91 1003.75 1003.58 1003.54 1003.62 1003.18 1003.21 1003.38 1003.31 1003.69 1003.91 1003.97 1004.07 1004.10 1004.37 1004.79 1005.00 1004.87 1005.15 1005.37
998.27 997.75 997.34 996.73 996.39 996.31 996.37 996.07 997.10 998.80 999.47 998.46 999.22 1000.25 1001.06 1001.76 1002.37 1002.89 1003.11 1003.39 1004.11 1004.43 1004.28 1004.19 1004.08 1004.18 1003.79 1003.78 1003.36 1002.80 1002.95 1003.25 1003.50 1003.41 1003.80 1003.80 1004.04 1004.11 1004.41 1004.70 1004.83 1005.02 1005.05 1004.92
998.95 998.36 998.20 997.51 996.95 996.46 996.29 996.67 997.00 997.35 997.93 999.04 1000.04 1000.97 1001.72 1002.24 1002.72 1002.99 1003.20 1003.44 1004.10 1004.49 1004.16 1004.03 1004.00 1004.73 1004.45 1004.26 1002.77 1002.85 1003.14 1003.36 1003.51 1003.78 1003.84 1003.84 1003.99 1004.10 1004.04 1004.16 1004.35 1004.43 1004.60 1004.63
999.41 998.76 998.41 998.16 997.55 997.48 996.57 996.79 997.43 998.35 998.47 999.94 1000.77 1001.46 1001.93 1002.23 1002.39 1002.79 1003.22 1003.72 1004.16 1004.44 1004.21 1004.34 1005.01 1005.00 1004.70 1003.83 1003.74 1003.64 1003.80 1003.97 1004.13 1004.21 1004.31 1004.20 1004.30 1004.33 1004.29 1004.31 1004.25 1004.08 1004.11 1004.16
999.76 999.44 998.70 998.47 998.16 997.82 997.01 998.07 998.87 999.01 998.12 999.86 1000.83 1001.36 1001.50 1001.71 1002.05 1002.76 1003.54 1004.14 1004.34 1004.46 1004.67 1004.83 1004.91 1004.91 1004.95 1004.32 1004.24 1004.25 1004.29 1004.26 1004.46 1004.65 1004.54 1004.47 1004.43 1004.54 1004.61 1004.37 1004.24 1004.23 1004.26 1004.33
999.89 999.55 999.18 998.73 998.64 998.64 998.53 998.75 998.58 998.70 999.59 999.96 1000.64 1001.05 1001.21 1001.45 1002.07 1002.89 1003.53 1003.98 1004.47 1004.55 1004.54 1004.93 1004.85 1004.93 1004.70 1004.25 1004.19 1004.21 1004.21 1004.28 1004.44 1004.61 1004.60 1004.50 1004.40 1004.56 1004.57 1004.59 1005.06 1004.97 1004.97 1004.84
999.97 999.78 999.82 999.83 999.75 999.69 999.81 999.28 999.18 999.48 1000.58 1000.34 1000.68 1000.91 1001.03 1001.63 1002.20 1002.78 1003.20 1003.64 1003.95 1004.15 1004.00 1004.28 1004.40 1004.71 1004.32 1004.10 1004.10 1003.92 1003.75 1003.96 1004.34 1004.64 1004.53 1004.57 1004.84 1004.87 1004.92 1005.03 1005.02 1005.08 1005.12 1004.92
1000.40 1000.55 1000.46 1000.69 1000.72 1000.65 1001.02 1001.17 999.56 999.96 1000.32 1000.11 1000.76 1001.04 1001.35 1001.81 1002.33 1002.71 1003.00 1003.20 1003.31 1003.40 1003.33 1003.75 1003.85 1003.83 1003.39 1003.80 1004.20 1003.89 1004.37 1004.38 1004.82 1005.06 1004.96 1004.82 1004.94 1005.07 1005.24 1005.20 1005.17 1005.13 1005.18 1005.55
Wind_Speed
22 19 20 22 20 21 21 22 20 22 20 20 10 6 11 9 9 6 9 13 7 8 11 10 10 10 9 10 9 7 9 8 9 10 11 10 11 10 9 11 9 7 8 9
20 21 20 22 24 23 23 23 22 25 22 9 13 8 8 6 7 5 5 4 11 9 12 12 12 11 10 10 10 8 9 9 8 9 8 9 11 10 9 9 10 9 9 7
19 20 21 23 24 24 22 20 23 24 20 11 18 14 7 12 6 3 2 2 3 12 11 11 11 11 12 9 9 9 8 7 8 8 8 8 11 11 10 8 6 9 8 9
18 17 26 17 21 22 24 21 17 23 20 15 14 17 13 6 10 8 4 3 4 5 11 11 12 13 10 10 9 8 8 8 8 10 10 9 9 10 9 8 8 6 7 6
11 10 12 31 21 20 23 22 20 18 13 17 14 24 15 13 11 7 5 2 4 4 5 10 10 11 11 10 10 9 9 9 9 10 9 9 10 11 11 10 9 8 7 8
3 6 9 7 31 33 27 19 22 23 18 18 12 8 13 15 13 11 6 5 3 3 4 6 5 10 10 10 9 9 8 9 9 10 11 12 12 10 9 8 9 8 9 7
13 9 9 12 18 29 22 12 17 22 19 9 3 12 17 17 13 10 8 8 8 8 8 8 3 3 8 10 9 11 10 10 10 10 11 11 10 9 9 8 8 8 7 8
12 16 19 14 15 16 15 29 17 15 13 19 22 22 16 14 12 11 9 8 9 8 8 8 7 5 5 3 5 8 8 8 10 11 10 9 10 9 8 9 8 7 8 6
17 7 18 13 16 21 23 20 5 11 23 20 21 19 16 12 12 8 9 6 6 6 8 8 9 10 9 11 8 4 5 7 8 9 10 10 7 6 10 11 8 7 9 7
15 6 16 20 11 12 23 8 12 15 16 18 18 17 14 12 9 7 7 4 5 3 4 5 5 5 5 7 7 6 5 3 3 4 5 7 7 5 8 7 7 5 4 8
12 16 11 7 7 18 32 26 16 16 15 16 14 12 11 8 6 5 4 2 6 4 3 6 4 6 7 5 5 5 3 4 1 2 4 5 4 4 5 6 6 3 1 2
5 2 8 9 15 27 41 16 13 15 13 9 11 10 8 9 6 4 4 3 3 4 2 4 4 8 6 5 4 3 2 2 2 4 2 5 5 3 4 6 7 7 7 7
5 16 13 10 28 24 9 9 10 12 11 10 7 9 11 9 7 4 8 7 7 7 6 4 2 6 5 4 4 3 4 4 4 3 3 2 1 2 3 6 7 11 8 9
18 29 22 28 12 8 8 10 5 10 7 7 8 5 8 11 5 8 10 8 8 8 7 6 7 7 5 5 2 2 0 1 3 3 2 3 4 2 1 3 2 3 4 3
1 26 1 8 19 4 4 6 6 8 6 6 6 6 6 10 8 6 5 4 5 6 6 6 5 5 4 2 3 1 2 1 2 2 1 1 2 3 4 3 2 3 5 3
6 5 6 1 16 11 4 6 5 5 7 7 6 6 5 9 8 5 4 2 2 6 5 4 3 5 5 5 4 4 5 4 3 0 2 2 1 2 1 1 2 1 0 3
7 5 7 6 7 4 7 9 7 6 9 6 8 9 6 6 6 5 8 6 4 4 3 1 2 2 4 5 3 4 5 4 1 5 1 3 1 1 2 2 2 1 4 6
4 8 11 12 11 9 10 7 9 10 8 8 10 9 8 7 6 6 4 6 3 2 5 3 1 2 5 0 1 2 1 0 1 3 3 1 3 2 2 2 3 2 4 5
5 6 9 11 13 13 8 2 3 25 13 13 9 9 8 8 7 5 3 6 6 4 2 2 4 8 3 2 4 1 3 1 3 2 1 2 2 2 2 3 3 3 3 5
9 9 12 9 11 13 12 6 8 5 12 12 11 9 8 8 7 6 6 5 5 4 3 2 4 1 3 2 4 3 3 5 3 4 1 3 2 3 2 1 3 4 2 2
10 12 13 13 10 11 12 6 14 12 11 9 10 7 7 6 7 4 6 5 5 4 2 2 2 4 3 6 7 5 7 4 3 4 3 3 3 4 2 1 2 2 4 3
12 10 11 15 14 10 11 11 9 8 9 9 9 9 8 6 8 4 3 6 6 3 2 2 5 8 7 14 1 8 7 7 7 5 5 6 6 3 1 4 3 3 2 1
11 12 11 13 13 13 11 11 14 14 13 9 10 9 8 7 7 7 6 5 5 2 6 6 3 6 11 5 6 6 7 7 6 5 5 5 5 5 5 4 4 1 2 4
7 12 12 11 14 7 9 8 13 10 14 11 10 8 6 7 7 8 7 9 9 6 8 5 2 4 5 1 3 3 3 4 6 5 6 2 5 4 5 5 4 4 5 7
9 9 12 11 10 6 7 12 10 12 10 10 10 8 7 6 8 8 8 7 7 7 8 8 8 4 3 4 4 1 0 2 3 2 5 6 5 2 4 6 7 8 8 9
11 8 6 9 7 3 4 3 7 9 10 10 9 8 7 6 6 7 6 8 8 7 6 7 6 6 7 4 5 6 4 5 3 3 2 6 6 5 4 3 1 1 3 4
6 2 1 6 8 9 12 14 4 10 10 11 7 6 7 7 5 4 3 5 4 6 3 7 7 6 5 6 2 6 5 6 8 7 10 7 6 8 9 9 8 8 9 13
Wind_Direction
272 272 268 266 261 215 237 253 249 254 264 173 165 81 236 176 95 90 145 150 191 158 148 152 155 157 166 177 181 196 166 193 173 171 183 198 172 186 211 183 198 195 195 198
269 267 260 262 267 263 217 227 251 264 271 93 112 49 279 189 156 156 158 209 166 151 149 163 166 169 179 189 176 193 169 191 164 167 182 172 170 198 186 197 198 197 201 193
250 251 258 251 246 259 259 225 221 246 258 228 83 318 152 113 124 148 150 115 324 161 162 170 173 177 185 189 170 188 175 193 160 168 201 194 176 185 198 195 196 201 198 198
270 283 241 258 254 248 254 267 237 228 248 259 157 201 88 69 75 97 62 60 280 285 166 162 176 182 182 182 175 182 182 196 179 182 206 189 175 180 186 191 197 217 225 201
276 266 332 305 254 252 237 249 260 266 252 232 161 124 132 108 97 82 75 59 297 264 251 164 170 166 168 174 174 182 189 199 196 191 196 193 201 194 193 192 197 204 207 209
209 212 257 237 281 278 271 231 229 247 255 246 204 196 126 120 111 103 82 77 89 37 28 117 140 157 167 171 172 186 198 201 206 198 203 203 208 204 203 195 204 199 193 207
228 241 251 221 278 292 250 244 222 212 236 233 147 113 117 111 106 101 100 77 70 63 49 32 70 223 176 179 186 185 187 195 206 209 212 216 208 204 204 192 203 200 203 201
322 273 247 42 346 330 344 292 227 209 213 111 111 107 120 118 122 122 104 74 86 65 70 51 19 357 332 205 171 168 182 199 204 210 212 217 216 210 209 222 226 218 212 196
210 273 332 345 334 309 289 275 59 125 111 115 111 113 124 135 121 96 90 85 65 74 82 52 34 16 26 16 30 33 189 208 220 232 227 229 245 53 53 10 329 279 241 215
311 358 353 327 321 308 298 357 58 68 96 115 121 126 126 120 121 112 105 85 89 83 99 92 56 48 36 33 45 24 13 294 279 280 348 81 91 111 138 164 262 265 340 305
276 295 329 301 21 230 262 312 84 83 62 67 97 88 100 102 81 69 68 82 73 44 56 69 66 60 22 29 24 29 43 54 95 155 126 166 193 211 211 212 211 152 77 203
196 156 263 331 318 283 276 225 85 86 82 81 87 102 102 95 90 71 55 51 122 107 71 64 43 90 67 27 23 1 288 273 311 307 303 145 149 170 160 164 203 182 232 231
219 216 167 170 251 239 78 98 100 100 115 112 109 120 112 107 88 90 89 73 61 54 49 36 3 103 77 26 45 23 353 347 322 310 321 296 265 211 219 206 234 209 213 244
252 197 190 213 228 110 122 105 103 97 101 106 111 108 127 121 140 79 65 55 46 59 60 38 48 45 38 9 333 314 42 65 311 15 335 349 345 314 3 294 252 147 144 63
74 276 300 87 6 85 119 122 131 131 127 125 128 114 114 109 99 96 83 95 94 75 41 34 46 51 353 293 276 142 75 113 282 62 313 282 268 274 276 283 280 118 132 152
207 11 340 126 162 197 179 185 196 153 151 155 142 125 103 100 121 147 140 96 10 83 57 50 45 336 333 332 290 120 110 87 6 128 204 265 63 265 50 101 244 255 181 93
334 313 300 282 305 270 215 212 215 220 160 168 135 117 135 139 129 132 138 98 105 122 94 55 27 354 312 303 335 27 93 122 312 247 260 6 18 29 27 337 123 14 79 69
295 294 289 289 291 283 280 293 327 194 138 138 121 141 152 148 142 122 98 115 132 62 86 63 2 274 238 225 63 35 344 133 3 317 343 243 316 308 253 210 282 184 135 101
294 270 265 260 262 265 256 198 40 283 141 131 143 148 138 124 130 138 183 156 162 151 128 177 212 277 81 66 299 67 52 48 71 51 203 183 249 276 352 336 320 356 75 141
329 318 307 279 263 263 272 253 137 257 120 131 140 135 146 136 128 166 167 102 58 87 91 148 304 217 138 159 266 250 177 155 166 165 30 78 27 48 78 83 315 308 281 254
332 325 318 305 270 264 260 248 138 149 146 133 125 141 124 113 117 169 163 157 133 159 160 157 70 346 238 2 316 279 96 99 294 56 166 184 173 95 82 18 79 314 311 315
322 325 318 308 316 243 246 140 99 112 122 123 140 132 132 156 145 148 56 133 137 161 237 247 70 17 348 329 3 63 65 53 54 41 40 31 27 48 66 45 26 149 156 346
317 323 314 302 299 316 149 146 131 166 130 145 132 150 167 163 172 150 131 109 126 75 92 93 52 354 341 40 30 52 77 61 46 51 38 17 64 28 15 26 327 251 110 9
313 318 306 295 299 286 169 97 162 142 127 139 155 180 166 157 143 102 100 92 93 129 124 141 130 350 350 176 97 87 64 55 71 22 340 327 33 45 355 336 354 49 22 341
311 301 304 288 294 277 153 149 140 118 129 156 161 171 189 143 121 132 146 142 155 186 158 180 195 219 283 312 121 114 13 115 103 59 6 337 7 337 326 2 45 33 10 1
299 317 333 356 16 2 82 272 134 138 173 150 164 181 133 99 121 140 149 167 177 211 223 166 204 199 230 207 243 259 228 128 110 159 320 36 17 36 78 107 71 250 264 271
315 297 169 79 65 69 47 360 195 144 144 147 149 148 132 130 147 140 173 177 188 215 182 181 220 230 256 191 77 33 53 67 40 16 8 7 35 19 25 12 9 10 7 20